| time (UTC) | temp F | wind direction | speed knots | gust knots | rain 1hr in | rain 24hr in | rain mn in | humidity % | barometer mb |
| 20260510013555 | 80 | 114 | 0.9 | 1.7 | 0.00 | 0.00 | 0.00 | 99 | 1014.8 |
| 20260510013052 | 80 | 126 | 0.0 | 0.9 | 0.00 | 0.00 | 0.00 | 99 | 1015.0 |
| 20260510012545 | 80 | 97 | 0.0 | 0.9 | 0.00 | 0.00 | 0.00 | 99 | 1014.8 |
| 20260510012043 | 80 | 106 | 0.0 | 1.7 | 0.00 | 0.00 | 0.00 | 99 | 1014.7 |
| 20260510011542 | 80 | 106 | 0.0 | 0.9 | 0.00 | 0.00 | 0.00 | 99 | 1014.7 |
| 20260510011038 | 81 | 117 | 0.9 | 1.7 | 0.00 | 0.00 | 0.00 | 99 | 1014.5 |
| 20260510010535 | 81 | 103 | 0.9 | 1.7 | 0.00 | 0.00 | 0.00 | 99 | 1014.6 |
| 20260510010032 | 82 | 96 | 1.7 | 1.7 | 0.00 | 0.00 | 0.00 | 99 | 1014.5 |
| 20260510005527 | 83 | 90 | 0.0 | 1.7 | 0.00 | 0.00 | 0.00 | 99 | 1014.5 |
| 20260510005026 | 83 | 101 | 0.0 | 1.7 | 0.00 | 0.00 | 0.00 | 99 | 1014.2 |
| 20260510004523 | 84 | 99 | 0.0 | 1.7 | 0.00 | 0.00 | 0.00 | 99 | 1014.5 |
| 20260510004021 | 84 | 83 | 0.9 | 1.7 | 0.00 | 0.00 | 0.00 | 99 | 1014.5 |
| 20260510003517 | 84 | 90 | 0.0 | 1.7 | 0.00 | 0.00 | 0.00 | 99 | 1014.5 |
| 20260510003013 | 85 | 90 | 0.0 | 1.7 | 0.00 | 0.00 | 0.00 | 99 | 1014.3 |
| 20260510002508 | 85 | 96 | 0.0 | 1.7 | 0.00 | 0.00 | 0.00 | 99 | 1014.3 |
| 20260510002005 | 86 | 103 | 1.7 | 2.6 | 0.00 | 0.00 | 0.00 | 99 | 1014.5 |
| 20260510001503 | 86 | 90 | 0.0 | 1.7 | 0.00 | 0.00 | 0.00 | 99 | 1014.3 |
| 20260510001001 | 86 | 69 | 0.0 | 2.6 | 0.00 | 0.00 | 0.00 | 99 | 1014.4 |
| 20260510000456 | 86 | 102 | 1.7 | 1.7 | 0.00 | 0.00 | 0.00 | 99 | 1014.4 |
| 20260509235953 | 86 | 90 | 0.0 | 1.7 | 0.00 | 0.00 | 0.00 | 99 | 1014.6 |
| 20260509235449 | 86 | 74 | 0.0 | 3.5 | 0.00 | 0.00 | 0.00 | 99 | 1014.4 |
| 20260509234946 | 87 | 104 | 2.6 | 2.6 | 0.00 | 0.00 | 0.00 | 99 | 1014.5 |
| 20260509234443 | 86 | 45 | 1.7 | 2.6 | 0.00 | 0.00 | 0.00 | 99 | 1014.8 |
| 20260509233941 | 86 | 98 | 0.0 | 2.6 | 0.00 | 0.00 | 0.00 | 99 | 1014.6 |
| 20260509233438 | 87 | 135 | 0.0 | 2.6 | 0.00 | 0.00 | 0.00 | 99 | 1014.7 |
| 20260509232934 | 87 | 99 | 0.0 | 2.6 | 0.00 | 0.00 | 0.00 | 99 | 1014.8 |
| 20260509232432 | 87 | 114 | 0.0 | 2.6 | 0.00 | 0.00 | 0.00 | 99 | 1014.7 |
| 20260509231927 | 87 | 69 | 0.9 | 2.6 | 0.00 | 0.00 | 0.00 | 99 | 1014.6 |
| 20260509231424 | 87 | 90 | 0.0 | 2.6 | 0.00 | 0.00 | 0.00 | 99 | 1014.6 |
| 20260509230922 | 87 | 120 | 0.0 | 2.6 | 0.00 | 0.00 | 0.00 | 99 | 1014.7 |
| 20260509230419 | 88 | 57 | 0.0 | 4.3 | 0.00 | 0.00 | 0.00 | 99 | 1014.6 |
| 20260509225915 | 87 | 148 | 1.7 | 4.3 | 0.00 | 0.00 | 0.00 | 99 | 1014.5 |
| 20260509225412 | 87 | 85 | 0.0 | 2.6 | 0.00 | 0.00 | 0.00 | 99 | 1014.6 |
| 20260509224908 | 87 | 106 | 1.7 | 3.5 | 0.00 | 0.00 | 0.00 | 99 | 1014.7 |
| 20260509224403 | 87 | 125 | 1.7 | 3.5 | 0.00 | 0.00 | 0.00 | 99 | 1014.5 |
| 20260509223901 | 88 | 132 | 0.0 | 3.5 | 0.00 | 0.00 | 0.00 | 99 | 1014.6 |
| 20260509223357 | 88 | 81 | 1.7 | 2.6 | 0.00 | 0.00 | 0.00 | 99 | 1014.5 |
| 20260509222854 | 87 | 58 | 2.6 | 2.6 | 0.00 | 0.00 | 0.00 | 99 | 1014.5 |
| 20260509222355 | 88 | 95 | 0.0 | 1.7 | 0.00 | 0.00 | 0.00 | 99 | 1014.5 |
| 20260509221850 | 87 | 75 | 1.7 | 1.7 | 0.00 | 0.00 | 0.00 | 99 | 1014.5 |
| 20260509221348 | 87 | 111 | 2.6 | 4.3 | 0.00 | 0.00 | 0.00 | 99 | 1014.4 |
| 20260509220843 | 87 | 129 | 1.7 | 2.6 | 0.00 | 0.00 | 0.00 | 99 | 1014.7 |
| 20260509220339 | 86 | 121 | 1.7 | 2.6 | 0.00 | 0.00 | 0.00 | 99 | 1014.5 |
| 20260509215835 | 87 | 8 | 0.9 | 4.3 | 0.00 | 0.00 | 0.00 | 99 | 1014.5 |
| 20260509215332 | 86 | 101 | 1.7 | 3.5 | 0.00 | 0.00 | 0.00 | 99 | 1014.4 |
| 20260509214829 | 87 | 108 | 1.7 | 2.6 | 0.00 | 0.00 | 0.00 | 99 | 1014.5 |
| 20260509214326 | 86 | 109 | 2.6 | 3.5 | 0.00 | 0.00 | 0.00 | 99 | 1014.5 |
| 20260509213823 | 86 | 120 | 1.7 | 2.6 | 0.00 | 0.00 | 0.00 | 99 | 1014.7 |
| 20260509213318 | 87 | 45 | 0.0 | 2.6 | 0.00 | 0.00 | 0.00 | 99 | 1014.6 |
| 20260509212816 | 86 | 97 | 2.6 | 3.5 | 0.00 | 0.00 | 0.00 | 99 | 1014.9 |
| 20260509212314 | 87 | 81 | 1.7 | 3.5 | 0.00 | 0.00 | 0.00 | 99 | 1015.2 |
| 20260509211809 | 86 | 60 | 0.9 | 2.6 | 0.00 | 0.00 | 0.00 | 99 | 1014.8 |
| 20260509211305 | 87 | 47 | 2.6 | 2.6 | 0.00 | 0.00 | 0.00 | 99 | 1014.7 |
| 20260509210802 | 86 | 115 | 1.7 | 3.5 | 0.00 | 0.00 | 0.00 | 99 | 1014.9 |
| 20260509210300 | 87 | 119 | 2.6 | 2.6 | 0.00 | 0.00 | 0.00 | 99 | 1014.9 |
| 20260509205759 | 87 | 58 | 2.6 | 4.3 | 0.00 | 0.00 | 0.00 | 99 | 1014.9 |
| 20260509205254 | 87 | 15 | 0.9 | 5.2 | 0.00 | 0.00 | 0.00 | 99 | 1015.2 |
| 20260509204750 | 87 | 95 | 1.7 | 2.6 | 0.00 | 0.00 | 0.00 | 99 | 1015.3 |
| 20260509204247 | 87 | 115 | 0.0 | 2.6 | 0.00 | 0.00 | 0.00 | 99 | 1015.2 |
| 20260509203743 | 87 | 129 | 2.6 | 2.6 | 0.00 | 0.00 | 0.00 | 99 | 1015.3 |
| 20260509203241 | 87 | 132 | 1.7 | 2.6 | 0.00 | 0.00 | 0.00 | 99 | 1015.3 |
| 20260509202736 | 86 | 115 | 1.7 | 3.5 | 0.00 | 0.00 | 0.00 | 99 | 1015.7 |
| 20260509202233 | 85 | 108 | 1.7 | 2.6 | 0.00 | 0.00 | 0.00 | 99 | 1015.5 |
| 20260509201727 | 87 | 114 | 2.6 | 2.6 | 0.00 | 0.00 | 0.00 | 99 | 1015.3 |
| 20260509201224 | 87 | 116 | 3.5 | 4.3 | 0.00 | 0.00 | 0.00 | 99 | 1015.6 |
| 20260509200720 | 86 | 157 | 0.9 | 3.5 | 0.00 | 0.00 | 0.00 | 99 | 1015.6 |
| 20260509200215 | 85 | 101 | 1.7 | 3.5 | 0.00 | 0.00 | 0.00 | 99 | 1015.6 |
| 20260509195711 | 85 | 81 | 0.0 | 5.2 | 0.00 | 0.00 | 0.00 | 99 | 1015.6 |
| 20260509195207 | 86 | 115 | 1.7 | 3.5 | 0.00 | 0.00 | 0.00 | 99 | 1015.5 |
| 20260509194701 | 85 | 102 | 2.6 | 6.1 | 0.00 | 0.00 | 0.00 | 99 | 1015.8 |
| 20260509194158 | 86 | 30 | 1.7 | 5.2 | 0.00 | 0.00 | 0.00 | 99 | 1015.7 |
| 20260509193654 | 85 | 144 | 0.0 | 3.5 | 0.00 | 0.00 | 0.00 | 99 | 1015.8 |
| 20260509193149 | 86 | 90 | 1.7 | 4.3 | 0.00 | 0.00 | 0.00 | 99 | 1015.8 |
| 20260509192646 | 86 | 128 | 1.7 | 3.5 | 0.00 | 0.00 | 0.00 | 99 | 1016.0 |
| 20260509192142 | 86 | 98 | 0.0 | 3.5 | 0.00 | 0.00 | 0.00 | 99 | 1015.8 |
| 20260509191641 | 86 | 19 | 5.2 | 5.2 | 0.00 | 0.00 | 0.00 | 99 | 1016.0 |
| 20260509191139 | 85 | 41 | 1.7 | 6.1 | 0.00 | 0.00 | 0.00 | 99 | 1015.9 |
| 20260509190635 | 84 | 90 | 0.0 | 2.6 | 0.00 | 0.00 | 0.00 | 99 | 1016.1 |
| 20260509190132 | 84 | 36 | 2.6 | 6.1 | 0.00 | 0.00 | 0.00 | 99 | 1016.1 |
| 20260509185630 | 83 | 99 | 1.7 | 3.5 | 0.00 | 0.00 | 0.00 | 99 | 1016.1 |
| 20260509185126 | 84 | 111 | 0.0 | 3.5 | 0.00 | 0.00 | 0.00 | 99 | 1016.2 |
| 20260509184624 | 83 | 114 | 0.0 | 3.5 | 0.00 | 0.00 | 0.00 | 99 | 1016.1 |
| 20260509184120 | 82 | 0 | 1.7 | 4.3 | 0.00 | 0.00 | 0.00 | 99 | 1016.3 |
| 20260509183616 | 82 | 66 | 0.9 | 4.3 | 0.00 | 0.00 | 0.00 | 99 | 1016.3 |
| 20260509183112 | 82 | 71 | 4.3 | 4.3 | 0.00 | 0.00 | 0.00 | 99 | 1016.4 |
| 20260509182608 | 82 | 7 | 0.0 | 4.3 | 0.00 | 0.00 | 0.00 | 99 | 1016.4 |
| 20260509182105 | 82 | 23 | 0.9 | 4.3 | 0.00 | 0.00 | 0.00 | 99 | 1016.4 |
| 20260509181603 | 82 | 13 | 4.3 | 5.2 | 0.00 | 0.00 | 0.00 | 99 | 1016.4 |
| 20260509181100 | 81 | 213 | 1.7 | 2.6 | 0.00 | 0.00 | 0.00 | 99 | 1016.7 |
| 20260509180556 | 81 | 72 | 2.6 | 6.1 | 0.00 | 0.00 | 0.00 | 99 | 1016.7 |
| 20260509180054 | 82 | 50 | 3.5 | 3.5 | 0.00 | 0.00 | 0.00 | 99 | 1016.6 |
| 20260509175549 | 81 | 60 | 0.9 | 4.3 | 0.00 | 0.00 | 0.00 | 99 | 1016.9 |
| 20260509175046 | 80 | 349 | 2.6 | 5.2 | 0.00 | 0.00 | 0.00 | 99 | 1017.0 |
| 20260509174542 | 81 | 106 | 0.9 | 2.6 | 0.00 | 0.00 | 0.00 | 99 | 1016.9 |
| 20260509174038 | 81 | 79 | 2.6 | 4.3 | 0.00 | 0.00 | 0.00 | 99 | 1017.0 |
| 20260509173532 | 81 | 132 | 0.0 | 4.3 | 0.00 | 0.00 | 0.00 | 99 | 1016.9 |
| 20260509173029 | 80 | 66 | 0.9 | 2.6 | 0.00 | 0.00 | 0.00 | 99 | 1017.2 |
| 20260509172526 | 79 | 126 | 0.9 | 5.2 | 0.00 | 0.00 | 0.00 | 99 | 1017.2 |
| 20260509172021 | 79 | 90 | 0.0 | 2.6 | 0.00 | 0.00 | 0.00 | 99 | 1017.4 |
| 20260509171518 | 79 | 30 | 3.5 | 6.1 | 0.00 | 0.00 | 0.00 | 99 | 1017.3 |
| 20260509171015 | 78 | 53 | 2.6 | 6.1 | 0.00 | 0.00 | 0.00 | 99 | 1017.4 |
| 20260509170510 | 79 | 27 | 3.5 | 3.5 | 0.00 | 0.00 | 0.00 | 99 | 1017.3 |
| 20260509170006 | 79 | 180 | 0.9 | 6.1 | 0.00 | 0.00 | 0.00 | 99 | 1017.2 |
| 20260509165505 | 78 | 345 | 0.9 | 5.2 | 0.00 | 0.00 | 0.00 | 99 | 1017.1 |
| 20260509165001 | 78 | 345 | 0.9 | 11.3 | 0.00 | 0.00 | 0.00 | 99 | 1017.3 |
| 20260509164457 | 78 | 356 | 1.7 | 6.1 | 0.00 | 0.00 | 0.00 | 99 | 1017.4 |
| 20260509163953 | 77 | 67 | 4.3 | 7.0 | 0.00 | 0.00 | 0.00 | 99 | 1017.2 |
| 20260509163451 | 78 | 294 | 2.6 | 6.1 | 0.00 | 0.00 | 0.00 | 99 | 1017.4 |
| 20260509162949 | 78 | 348 | 3.5 | 6.1 | 0.00 | 0.00 | 0.00 | 99 | 1017.2 |
| 20260509162449 | 77 | 72 | 2.6 | 4.3 | 0.00 | 0.00 | 0.00 | 99 | 1017.1 |
| 20260509161944 | 77 | 46 | 4.3 | 6.1 | 0.00 | 0.00 | 0.00 | 99 | 1017.4 |
| 20260509161441 | 77 | 341 | 2.6 | 7.8 | 0.00 | 0.00 | 0.00 | 99 | 1017.2 |
| 20260509160936 | 77 | 355 | 2.6 | 4.3 | 0.00 | 0.00 | 0.00 | 99 | 1017.3 |
| 20260509160432 | 76 | 39 | 3.5 | 6.1 | 0.00 | 0.00 | 0.00 | 99 | 1017.4 |
| 20260509155927 | 77 | 86 | 0.0 | 8.7 | 0.00 | 0.00 | 0.00 | 99 | 1017.1 |
| 20260509155424 | 76 | 90 | 0.9 | 4.3 | 0.00 | 0.00 | 0.00 | 99 | 1017.2 |
| 20260509154920 | 75 | 32 | 4.3 | 6.1 | 0.00 | 0.00 | 0.00 | 99 | 1017.3 |
| 20260509154417 | 76 | 26 | 1.7 | 5.2 | 0.00 | 0.00 | 0.00 | 99 | 1017.2 |
| 20260509153914 | 75 | 354 | 2.6 | 4.3 | 0.00 | 0.00 | 0.00 | 99 | 1017.4 |
| 20260509153411 | 74 | 14 | 0.9 | 6.1 | 0.00 | 0.00 | 0.00 | 99 | 1017.3 |
| 20260509152908 | 74 | 15 | 3.5 | 4.3 | 0.00 | 0.00 | 0.00 | 99 | 1017.2 |
| 20260509152404 | 74 | 298 | 2.6 | 4.3 | 0.00 | 0.00 | 0.00 | 99 | 1017.3 |
| 20260509151901 | 74 | 283 | 2.6 | 5.2 | 0.00 | 0.00 | 0.00 | 99 | 1017.3 |
| 20260509151357 | 74 | 21 | 1.7 | 4.3 | 0.00 | 0.00 | 0.00 | 99 | 1017.2 |
| 20260509150855 | 73 | 355 | 2.6 | 4.3 | 0.00 | 0.00 | 0.00 | 99 | 1017.4 |
| 20260509150353 | 73 | 60 | 0.0 | 4.3 | 0.00 | 0.00 | 0.00 | 99 | 1017.3 |
| 20260509145850 | 73 | 272 | 4.3 | 4.3 | 0.00 | 0.00 | 0.00 | 99 | 1017.5 |
| 20260509145345 | 72 | 9 | 1.7 | 4.3 | 0.00 | 0.00 | 0.00 | 99 | 1017.3 |
| 20260509144841 | 73 | 318 | 2.6 | 4.3 | 0.00 | 0.00 | 0.00 | 99 | 1017.6 |
| 20260509144338 | 72 | 356 | 1.7 | 5.2 | 0.00 | 0.00 | 0.00 | 99 | 1017.5 |
| 20260509143835 | 72 | 321 | 2.6 | 5.2 | 0.00 | 0.00 | 0.00 | 99 | 1017.5 |
| 20260509143333 | 72 | 40 | 2.6 | 4.3 | 0.00 | 0.00 | 0.00 | 99 | 1017.4 |
| 20260509142829 | 72 | 0 | 1.7 | 7.0 | 0.00 | 0.00 | 0.00 | 99 | 1017.4 |
| 20260509142325 | 72 | 339 | 1.7 | 4.3 | 0.00 | 0.00 | 0.00 | 99 | 1017.3 |
| 20260509141821 | 72 | 306 | 0.0 | 6.1 | 0.00 | 0.00 | 0.00 | 99 | 1017.2 |
| 20260509141318 | 72 | 12 | 3.5 | 7.0 | 0.00 | 0.00 | 0.00 | 99 | 1017.0 |
| 20260509140814 | 73 | 266 | 4.3 | 4.3 | 0.00 | 0.00 | 0.00 | 99 | 1017.2 |
| 20260509140312 | 72 | 308 | 4.3 | 5.2 | 0.00 | 0.00 | 0.00 | 99 | 1017.2 |
| 20260509135810 | 72 | 358 | 0.0 | 5.2 | 0.00 | 0.00 | 0.00 | 99 | 1017.2 |
| 20260509135307 | 72 | 35 | 3.5 | 6.1 | 0.00 | 0.00 | 0.00 | 99 | 1017.1 |
| 20260509134804 | 72 | 354 | 0.0 | 2.6 | 0.00 | 0.00 | 0.00 | 99 | 1016.9 |
| 20260509134301 | 71 | 339 | 2.6 | 4.3 | 0.00 | 0.00 | 0.00 | 99 | 1017.0 |
| 20260509133758 | 71 | 25 | 4.3 | 5.2 | 0.00 | 0.00 | 0.00 | 99 | 1017.1 |
| 20260509133254 | 71 | 297 | 0.9 | 3.5 | 0.00 | 0.00 | 0.00 | 99 | 1017.0 |
| 20260509132754 | 71 | 349 | 0.0 | 3.5 | 0.00 | 0.00 | 0.00 | 99 | 1016.6 |
| 20260509132252 | 71 | 98 | 0.0 | 2.6 | 0.00 | 0.00 | 0.00 | 99 | 1016.9 |
| 20260509131748 | 71 | 320 | 2.6 | 4.3 | 0.00 | 0.00 | 0.00 | 99 | 1017.1 |
| 20260509131245 | 70 | 292 | 2.6 | 3.5 | 0.00 | 0.00 | 0.00 | 99 | 1016.8 |
| 20260509130741 | 70 | 14 | 0.0 | 1.7 | 0.00 | 0.00 | 0.00 | 99 | 1016.8 |
| 20260509130237 | 70 | 270 | 0.0 | 0.0 | 0.00 | 0.00 | 0.00 | 99 | 1017.0 |
| 20260509125733 | 70 | 90 | 0.0 | 1.7 | 0.00 | 0.00 | 0.00 | 99 | 1016.6 |
| 20260509125231 | 70 | 286 | 0.0 | 0.9 | 0.00 | 0.00 | 0.00 | 99 | 1016.7 |
| 20260509124727 | 70 | 81 | 0.0 | 0.0 | 0.00 | 0.00 | 0.00 | 99 | 1017.0 |
| 20260509124223 | 69 | 82 | 0.0 | 1.7 | 0.00 | 0.00 | 0.00 | 99 | 1016.6 |
| 20260509123722 | 69 | 240 | 0.0 | 0.9 | 0.00 | 0.00 | 0.00 | 99 | 1016.7 |
| 20260509123219 | 69 | 90 | 0.0 | 0.0 | 0.00 | 0.00 | 0.00 | 99 | 1017.0 |
| 20260509122714 | 69 | 8 | 0.0 | 0.9 | 0.00 | 0.00 | 0.00 | 99 | 1016.9 |
| 20260509122211 | 69 | 90 | 0.0 | 0.0 | 0.00 | 0.00 | 0.00 | 99 | 1016.7 |
| 20260509121708 | 69 | 90 | 0.0 | 0.0 | 0.00 | 0.00 | 0.00 | 99 | 1016.8 |
| 20260509121206 | 69 | 90 | 0.0 | 0.0 | 0.00 | 0.00 | 0.00 | 99 | 1016.8 |
| 20260509120704 | 69 | 90 | 0.0 | 0.0 | 0.00 | 0.00 | 0.00 | 99 | 1016.8 |
| 20260509120201 | 68 | 90 | 0.0 | 0.0 | 0.00 | 0.00 | 0.00 | 99 | 1016.7 |
| 20260509115659 | 68 | 90 | 0.0 | 0.0 | 0.00 | 0.00 | 0.00 | 99 | 1016.5 |
| 20260509115156 | 69 | 90 | 0.0 | 0.0 | 0.00 | 0.00 | 0.00 | 99 | 1016.6 |
| 20260509114654 | 68 | 99 | 0.0 | 0.0 | 0.00 | 0.00 | 0.00 | 99 | 1016.5 |
| 20260509114153 | 69 | 90 | 0.0 | 0.0 | 0.00 | 0.00 | 0.00 | 99 | 1016.5 |
| 20260509113651 | 69 | 90 | 0.0 | 0.0 | 0.00 | 0.00 | 0.00 | 99 | 1016.3 |
| 20260509113147 | 69 | 99 | 0.0 | 0.0 | 0.00 | 0.00 | 0.00 | 99 | 1016.1 |
| 20260509112644 | 69 | 90 | 0.0 | 1.7 | 0.00 | 0.00 | 0.00 | 99 | 1015.9 |
| 20260509112141 | 70 | 120 | 1.7 | 1.7 | 0.00 | 0.00 | 0.00 | 99 | 1015.9 |
| 20260509111639 | 70 | 111 | 0.9 | 1.7 | 0.00 | 0.00 | 0.00 | 99 | 1015.8 |
| 20260509111135 | 69 | 90 | 0.0 | 0.9 | 0.00 | 0.00 | 0.00 | 99 | 1015.8 |
| 20260509110632 | 69 | 82 | 0.9 | 0.9 | 0.00 | 0.00 | 0.00 | 99 | 1015.8 |
| 20260509110129 | 69 | 81 | 0.0 | 0.9 | 0.00 | 0.00 | 0.00 | 99 | 1015.8 |
| 20260509105627 | 69 | 90 | 0.0 | 0.9 | 0.00 | 0.00 | 0.00 | 99 | 1015.6 |
| 20260509105125 | 69 | 74 | 0.0 | 0.0 | 0.00 | 0.00 | 0.00 | 99 | 1015.8 |
| 20260509104622 | 70 | 74 | 0.0 | 1.7 | 0.00 | 0.00 | 0.00 | 99 | 1015.3 |
| 20260509104118 | 70 | 90 | 0.0 | 0.9 | 0.00 | 0.00 | 0.00 | 99 | 1015.5 |
| 20260509103616 | 69 | 99 | 0.0 | 1.7 | 0.00 | 0.00 | 0.00 | 99 | 1015.4 |
| 20260509103114 | 69 | 139 | 1.7 | 1.7 | 0.00 | 0.00 | 0.00 | 99 | 1015.4 |
| 20260509102611 | 70 | 90 | 0.0 | 1.7 | 0.00 | 0.00 | 0.00 | 99 | 1015.4 |
| 20260509102108 | 70 | 106 | 0.9 | 1.7 | 0.00 | 0.00 | 0.00 | 99 | 1015.4 |
| 20260509101604 | 70 | 114 | 0.0 | 0.9 | 0.00 | 0.00 | 0.00 | 99 | 1015.6 |
| 20260509101101 | 70 | 111 | 0.9 | 0.9 | 0.00 | 0.00 | 0.00 | 99 | 1015.6 |
| 20260509100558 | 70 | 106 | 0.0 | 1.7 | 0.00 | 0.00 | 0.00 | 99 | 1015.4 |
| 20260509100056 | 70 | 99 | 0.0 | 0.9 | 0.00 | 0.00 | 0.00 | 99 | 1015.4 |
| 20260509095552 | 70 | 84 | 1.7 | 1.7 | 0.00 | 0.00 | 0.00 | 99 | 1015.6 |
| 20260509095050 | 70 | 35 | 0.0 | 0.9 | 0.00 | 0.00 | 0.00 | 99 | 1015.4 |
| 20260509094545 | 70 | 97 | 0.9 | 1.7 | 0.00 | 0.00 | 0.00 | 99 | 1015.4 |
| 20260509094043 | 70 | 74 | 0.9 | 0.9 | 0.00 | 0.00 | 0.00 | 99 | 1015.5 |
| 20260509093541 | 70 | 90 | 0.9 | 2.6 | 0.00 | 0.00 | 0.00 | 99 | 1015.4 |
| 20260509093038 | 70 | 21 | 1.7 | 2.6 | 0.00 | 0.00 | 0.00 | 99 | 1015.3 |
| 20260509092536 | 70 | 48 | 1.7 | 3.5 | 0.00 | 0.00 | 0.00 | 99 | 1015.2 |
| 20260509092035 | 70 | 0 | 1.7 | 1.7 | 0.00 | 0.00 | 0.00 | 99 | 1015.2 |
| 20260509091532 | 69 | 303 | 1.7 | 1.7 | 0.00 | 0.00 | 0.00 | 99 | 1015.3 |
| 20260509091028 | 69 | 81 | 0.0 | 1.7 | 0.00 | 0.00 | 0.00 | 99 | 1014.4 |
| 20260509090526 | 69 | 54 | 0.0 | 2.6 | 0.00 | 0.00 | 0.00 | 99 | 1014.0 |
| 20260509090023 | 69 | 120 | 0.9 | 2.6 | 0.00 | 0.00 | 0.00 | 99 | 1013.8 |
| 20260509085520 | 69 | 117 | 0.9 | 2.6 | 0.00 | 0.00 | 0.00 | 99 | 1014.0 |
| 20260509085016 | 69 | 99 | 0.0 | 1.7 | 0.00 | 0.00 | 0.00 | 99 | 1014.0 |
| 20260509084513 | 69 | 114 | 0.9 | 1.7 | 0.00 | 0.00 | 0.00 | 99 | 1014.1 |
| 20260509084010 | 69 | 111 | 0.9 | 4.3 | 0.00 | 0.00 | 0.00 | 99 | 1014.3 |
| 20260509083508 | 69 | 127 | 1.7 | 2.6 | 0.00 | 0.00 | 0.00 | 99 | 1014.2 |
| 20260509083004 | 70 | 135 | 0.0 | 2.6 | 0.00 | 0.00 | 0.00 | 99 | 1014.4 |
| 20260509082502 | 70 | 135 | 0.0 | 2.6 | 0.00 | 0.00 | 0.00 | 99 | 1014.6 |
| 20260509081959 | 70 | 151 | 0.0 | 2.6 | 0.00 | 0.00 | 0.00 | 99 | 1014.8 |
| 20260509081456 | 70 | 90 | 0.0 | 1.7 | 0.00 | 0.00 | 0.00 | 99 | 1014.9 |
| 20260509080952 | 70 | 196 | 1.7 | 2.6 | 0.00 | 0.00 | 0.00 | 99 | 1015.2 |
| 20260509080451 | 70 | 105 | 0.0 | 1.7 | 0.00 | 0.00 | 0.00 | 99 | 1015.4 |
| 20260509075949 | 71 | 82 | 0.9 | 1.7 | 0.00 | 0.00 | 0.00 | 99 | 1015.7 |
| 20260509075445 | 71 | 98 | 0.0 | 0.9 | 0.00 | 0.00 | 0.00 | 99 | 1015.9 |
| 20260509074943 | 71 | 82 | 0.0 | 1.7 | 0.00 | 0.00 | 0.00 | 99 | 1016.0 |
| 20260509074441 | 71 | 96 | 1.7 | 1.7 | 0.00 | 0.00 | 0.00 | 99 | 1016.4 |
| 20260509073937 | 71 | 109 | 0.0 | 1.7 | 0.00 | 0.00 | 0.00 | 99 | 1016.4 |
| 20260509073433 | 71 | 99 | 0.0 | 1.7 | 0.00 | 0.00 | 0.00 | 99 | 1016.7 |
| 20260509072930 | 71 | 90 | 0.0 | 2.6 | 0.00 | 0.00 | 0.00 | 99 | 1016.7 |
| 20260509072427 | 71 | 105 | 0.0 | 1.7 | 0.00 | 0.00 | 0.00 | 99 | 1016.7 |
| 20260509071923 | 71 | 106 | 0.0 | 0.9 | 0.00 | 0.00 | 0.00 | 99 | 1016.8 |
| 20260509071420 | 71 | 84 | 0.9 | 1.7 | 0.00 | 0.00 | 0.00 | 99 | 1017.1 |
| 20260509070918 | 71 | 233 | 1.7 | 1.7 | 0.00 | 0.00 | 0.00 | 99 | 1017.0 |
| 20260509070415 | 71 | 240 | 0.0 | 2.6 | 0.00 | 0.00 | 0.00 | 99 | 1017.1 |
| 20260509065909 | 71 | 225 | 1.7 | 2.6 | 0.00 | 0.00 | 0.00 | 99 | 1017.1 |
| 20260509065406 | 71 | 288 | 1.7 | 4.3 | 0.00 | 0.00 | 0.00 | 99 | 1017.0 |
| 20260509064902 | 71 | 270 | 0.9 | 2.6 | 0.00 | 0.00 | 0.00 | 99 | 1016.9 |
| 20260509064400 | 70 | 280 | 0.0 | 3.5 | 0.00 | 0.00 | 0.00 | 99 | 1016.7 |
| 20260509063858 | 70 | 270 | 0.0 | 2.6 | 0.00 | 0.00 | 0.00 | 99 | 1016.6 |
| 20260509063353 | 70 | 243 | 0.0 | 2.6 | 0.00 | 0.00 | 0.00 | 99 | 1016.4 |
| 20260509062851 | 70 | 247 | 0.0 | 1.7 | 0.00 | 0.00 | 0.00 | 99 | 1016.4 |
| 20260509062348 | 70 | 235 | 0.0 | 4.3 | 0.00 | 0.00 | 0.00 | 99 | 1016.4 |
| 20260509061845 | 70 | 190 | 1.7 | 2.6 | 0.00 | 0.00 | 0.00 | 99 | 1016.5 |
| 20260509061343 | 69 | 60 | 0.0 | 1.7 | 0.00 | 0.00 | 0.00 | 99 | 1016.4 |
| 20260509060839 | 69 | 192 | 0.0 | 0.9 | 0.00 | 0.00 | 0.00 | 99 | 1016.5 |
| 20260509060337 | 69 | 59 | 1.7 | 1.7 | 0.00 | 0.00 | 0.00 | 99 | 1016.6 |
| 20260509055832 | 69 | 81 | 0.0 | 2.6 | 0.00 | 0.00 | 0.00 | 99 | 1016.5 |
| 20260509055327 | 70 | 90 | 0.0 | 0.0 | 0.00 | 0.00 | 0.00 | 99 | 1016.7 |
| 20260509054824 | 71 | 187 | 0.0 | 0.0 | 0.00 | 0.00 | 0.00 | 99 | 1017.3 |
| 20260509054321 | 71 | 187 | 0.0 | 0.0 | 0.00 | 0.00 | 0.00 | 99 | 1017.1 |
| 20260509053820 | 71 | 195 | 0.0 | 0.0 | 0.00 | 0.00 | 0.00 | 99 | 1017.1 |
| 20260509053316 | 71 | 306 | 0.0 | 0.9 | 0.00 | 0.00 | 0.00 | 99 | 1017.4 |
| 20260509052815 | 71 | 342 | 0.0 | 0.0 | 0.00 | 0.00 | 0.00 | 99 | 1017.4 |
| 20260509052312 | 71 | 240 | 0.0 | 1.7 | 0.00 | 0.00 | 0.00 | 99 | 1017.1 |
| 20260509051810 | 71 | 255 | 0.0 | 2.6 | 0.00 | 0.00 | 0.00 | 99 | 1017.6 |
| 20260509051307 | 71 | 255 | 0.9 | 1.7 | 0.00 | 0.00 | 0.00 | 99 | 1018.0 |
| 20260509050804 | 71 | 14 | 0.0 | 4.3 | 0.00 | 0.00 | 0.00 | 99 | 1018.0 |
| 20260509050300 | 70 | 49 | 2.6 | 2.6 | 0.00 | 0.00 | 0.00 | 99 | 1017.8 |
| 20260509045757 | 70 | 0 | 1.7 | 1.7 | 0.00 | 0.60 | 0.60 | 99 | 1017.4 |
| 20260509045254 | 70 | 29 | 0.0 | 0.9 | 0.00 | 0.60 | 0.60 | 99 | 1016.6 |
| 20260509044752 | 70 | 188 | 0.0 | 0.0 | 0.00 | 0.60 | 0.60 | 99 | 1016.5 |
| 20260509044249 | 71 | 195 | 0.9 | 2.6 | 0.00 | 0.60 | 0.60 | 99 | 1016.1 |
| 20260509043745 | 71 | 188 | 0.0 | 2.6 | 0.00 | 0.60 | 0.60 | 99 | 1016.4 |
| 20260509043241 | 71 | 77 | 0.0 | 0.9 | 0.00 | 0.60 | 0.60 | 99 | 1016.2 |
| 20260509042738 | 71 | 186 | 0.9 | 2.6 | 0.00 | 0.60 | 0.60 | 99 | 1016.1 |
| 20260509042234 | 71 | 139 | 0.0 | 3.5 | 0.00 | 0.60 | 0.60 | 99 | 1016.0 |
| 20260509041731 | 71 | 206 | 0.0 | 2.6 | 0.00 | 0.60 | 0.60 | 99 | 1015.8 |
| 20260509041228 | 71 | 157 | 0.0 | 3.5 | 0.00 | 0.60 | 0.60 | 99 | 1016.5 |
| 20260509040727 | 71 | 210 | 3.5 | 3.5 | 0.00 | 0.60 | 0.60 | 99 | 1016.4 |
| 20260509040223 | 71 | 114 | 0.0 | 3.5 | 0.00 | 0.60 | 0.60 | 99 | 1016.0 |
| 20260509035719 | 71 | 99 | 0.0 | 2.6 | 0.00 | 0.60 | 0.60 | 99 | 1016.4 |
| 20260509035216 | 72 | 105 | 0.0 | 0.9 | 0.00 | 0.60 | 0.60 | 99 | 1016.5 |
| 20260509034714 | 72 | 0 | 0.0 | 0.0 | 0.00 | 0.60 | 0.60 | 99 | 1017.1 |
| 20260509034211 | 72 | 0 | 0.0 | 0.0 | 0.00 | 0.60 | 0.60 | 99 | 1017.5 |
| 20260509033708 | 72 | 15 | 0.0 | 1.7 | 0.00 | 0.60 | 0.60 | 99 | 1017.2 |
| 20260509033205 | 72 | 15 | 0.0 | 1.7 | 0.00 | 0.60 | 0.60 | 99 | 1017.4 |
| 20260509032702 | 72 | 246 | 0.0 | 0.0 | 0.00 | 0.60 | 0.60 | 99 | 1017.1 |
| 20260509032159 | 72 | 246 | 0.0 | 0.0 | 0.00 | 0.60 | 0.60 | 99 | 1016.8 |
| 20260509031656 | 72 | 251 | 0.0 | 0.9 | 0.00 | 0.60 | 0.60 | 99 | 1016.7 |
| 20260509031154 | 72 | 90 | 0.0 | 0.0 | 0.00 | 0.60 | 0.60 | 99 | 1016.7 |
| 20260509030652 | 72 | 106 | 0.0 | 1.7 | 0.00 | 0.60 | 0.60 | 99 | 1016.7 |
| 20260509030149 | 72 | 90 | 0.0 | 0.0 | 0.00 | 0.60 | 0.60 | 99 | 1017.0 |
| 20260509025645 | 71 | 90 | 0.0 | 1.7 | 0.00 | 0.60 | 0.60 | 99 | 1016.7 |
| 20260509025141 | 72 | 69 | 0.0 | 1.7 | 0.00 | 0.60 | 0.60 | 99 | 1016.7 |
| 20260509024637 | 71 | 74 | 0.9 | 0.9 | 0.00 | 0.60 | 0.60 | 99 | 1016.5 |
| 20260509024133 | 71 | 74 | 0.0 | 0.9 | 0.00 | 0.60 | 0.60 | 99 | 1016.1 |
| 20260509023631 | 71 | 90 | 0.0 | 0.0 | 0.00 | 0.60 | 0.60 | 99 | 1015.7 |
| 20260509023127 | 71 | 98 | 0.0 | 1.7 | 0.00 | 0.60 | 0.60 | 99 | 1015.7 |
| 20260509022623 | 71 | 190 | 0.0 | 2.6 | 0.00 | 0.60 | 0.60 | 99 | 1015.4 |
| 20260509022122 | 71 | 140 | 0.0 | 2.6 | 0.00 | 0.60 | 0.60 | 99 | 1015.3 |
| 20260509021618 | 71 | 99 | 0.0 | 1.7 | 0.00 | 0.60 | 0.60 | 99 | 1015.5 |
| 20260509021115 | 72 | 114 | 0.0 | 0.9 | 0.00 | 0.60 | 0.60 | 99 | 1015.4 |
| 20260509020614 | 71 | 98 | 0.0 | 1.7 | 0.00 | 0.60 | 0.60 | 99 | 1015.4 |
| 20260509020110 | 71 | 97 | 0.0 | 2.6 | 0.00 | 0.60 | 0.60 | 99 | 1015.4 |
| 20260509015610 | 71 | 105 | 0.0 | 1.7 | 0.00 | 0.60 | 0.60 | 99 | 1015.3 |
| 20260509015106 | 71 | 131 | 0.0 | 3.5 | 0.00 | 0.60 | 0.60 | 99 | 1015.2 |
| 20260509014602 | 71 | 81 | 0.0 | 1.7 | 0.00 | 0.60 | 0.60 | 99 | 1015.4 |
| 20260509014059 | 72 | 121 | 0.0 | 0.0 | 0.00 | 0.60 | 0.60 | 99 | 1015.0 |